Home > Weather > Grand Junction > Past weeks

Flag for USA Past Weather in Grand Junction, Colorado, USA — Yesterday and Last 2 Weeks

Now
92 °F

Sunny.


Feels Like: 88 °F
Forecast: 64 / 99 °F
Wind: 7 mph from Southwest

Location: Walker Field

Current Time: Jul 27, 2016 at 1:15:50 PM

Latest Report: Jul 27, 2016 at 12:53 PM


Visibility: 10 mi

Pressure: 29.92 "Hg (25.60 "Hg at 1398m altitude)

Humidity: 18%

Dew Point: 42 °F

Location of Grand JunctionLocation

Past Weather in Grand Junction — Graph

°F

Grand Junction Temperature Yesterday

Maximum temperature yesterday: 97 °F (at 2:53 PM)
Minimum temperature yesterday: 70 °F (at 6:53 AM)
Average temperature yesterday: 84 °F

High & Low Weather Summary for the Past Weeks

 TemperatureHumidityPressure
High99 °F (Jul 16, 2:53 PM)87% (Jul 19, 7:53 AM)30.27 "Hg (Jul 19, 7:53 AM)
Low58 °F (Jul 13, 4:53 AM)5% (Jul 13, 4:53 PM)29.63 "Hg (Jul 16, 4:53 PM)
Average81 °F27%29.88 "Hg
* Reported Jul 12 11:53 AM — Jul 27 11:53 AM, Grand Junction, Weather by CustomWeather, © 2016

Note: Actual official high and low records may vary slightly from our data, if they occured in-between our weather recording intervals... More about our weather records

Advertising

Grand Junction Weather History for the Previous 24 Hours

Scroll right to see more
 ConditionsComfort  
Time TempWeatherWind HumidityBarometerVisibility
11:53 AM
Wed, Jul 27
88 °FSunny.6 mph20%29.94 "Hg10 mi
10:53 AM83 °FSunny.6 mph23%29.96 "Hg10 mi
9:53 AM81 °FSunny.9 mph25%29.97 "Hg10 mi
8:53 AM75 °FSunny.7 mph33%29.98 "Hg10 mi
7:53 AM70 °FSunny.9 mph39%29.97 "Hg10 mi
6:53 AM67 °FClear.10 mph41%29.97 "Hg10 mi
5:53 AM65 °FClear.6 mph44%29.95 "Hg10 mi
4:53 AM67 °FClear.9 mph42%29.91 "Hg10 mi
3:53 AM70 °FClear.5 mph35%29.88 "Hg10 mi
2:53 AM70 °FClear.9 mph37%29.88 "Hg10 mi
1:53 AM69 °FClear.8 mph39%29.88 "Hg10 mi
12:53 AM73 °FClear.3 mph33%29.88 "Hg10 mi
11:53 PM
Tue, Jul 26
76 °FClear.No wind31%29.88 "Hg10 mi
10:53 PM81 °FClear.12 mph23%29.86 "Hg10 mi
9:53 PM83 °FClear.8 mph21%29.86 "Hg10 mi
8:53 PM84 °FSunny.12 mph20%29.85 "Hg10 mi
7:53 PM88 °FSunny.8 mph18%29.85 "Hg10 mi
6:53 PM87 °FScattered clouds.15 mph21%29.88 "Hg10 mi
5:53 PM87 °FPartly sunny.17 mph23%29.85 "Hg10 mi
4:53 PM93 °FScattered clouds.12 mph14%29.82 "Hg10 mi
3:53 PM97 °FScattered clouds.7 mph13%29.80 "Hg10 mi
2:53 PM97 °FScattered clouds.No wind13%29.81 "Hg10 mi
1:53 PM93 °FScattered clouds.3 mph18%29.85 "Hg10 mi
Weather by CustomWeather, © 2016

See weather overviewHow to use our weather pages